Temperature
11 11 11 11 11 11 11 11 11 12 11 11 11 10 10 10 11 11 11 11 11 11 11 11 11 11 11 11 11 11 11 11 11 11 11 11 11 11
10 10 10 10 10 10 10 10 10 11 11 10 10 10 10 10 10 10 10 11 11 11 11 11 11 11 11 11 11 11 11 11 11 11 11 11 11 11
10 10 10 10 10 10 10 10 10 10 10 10 10 10 10 10 10 10 10 10 10 10 11 11 11 11 11 11 11 11 11 11 11 11 11 11 10 10
10 10 10 10 10 10 10 10 10 10 10 10 10 10 10 10 10 10 10 10 10 10 10 10 10 10 10 10 11 10 10 10 10 10 10 10 10 10
9 9 9 9 10 9 9 9 9 9 9 10 9 9 9 9 9 9 9 10 9 10 10 10 10 10 10 10 10 10 10 10 10 10 10 10 10 10
9 9 9 9 9 9 9 9 9 9 9 9 9 9 9 9 9 9 9 9 9 9 9 9 9 9 10 10 10 10 10 10 10 10 10 10 10 10
9 9 9 9 9 9 9 9 9 9 9 9 9 9 9 9 9 9 9 9 9 9 9 9 9 9 9 9 9 9 9 10 10 10 10 10 10 10
9 8 9 9 9 9 9 9 9 8 8 8 8 8 8 8 8 8 8 8 8 8 8 8 8 8 8 9 9 9 9 9 10 9 9 9 9 9
8 8 8 8 8 8 8 8 8 8 8 8 8 8 8 8 8 8 8 8 8 8 8 8 8 8 8 8 9 9 9 9 9 9 9 9 9 9
8 8 8 8 8 8 8 8 8 8 8 8 8 8 8 8 8 8 8 8 8 8 8 8 8 8 8 8 9 9 9 9 9 9 9 9 9 9
7 7 7 7 8 8 7 7 7 7 7 7 7 7 8 8 8 7 7 7 7 7 7 7 7 7 8 8 8 9 9 9 9 9 9 9 9 9
7 7 7 7 7 7 7 7 7 7 7 7 7 7 7 7 7 7 7 7 7 7 7 7 7 7 7 8 8 8 8 8 8 8 8 8 8 8
6 6 6 7 7 7 7 6 7 7 7 6 6 6 6 7 7 7 7 6 6 7 7 7 7 6 6 7 7 8 8 8 8 8 8 8 8 8
6 6 6 6 6 6 6 6 6 6 6 6 6 6 6 6 6 6 6 6 6 6 6 6 6 6 6 6 7 7 7 7 7 8 8 8 8 8
5 6 6 6 6 6 6 6 6 6 6 6 6 6 6 6 6 6 6 6 6 6 6 6 6 6 6 6 6 6 7 7 7 7 7 7 7 7
5 5 5 5 5 5 5 5 5 5 5 5 5 5 5 5 5 5 5 5 5 5 5 5 5 6 6 6 6 6 6 6 7 7 7 7 7 7
5 4 4 4 4 4 4 5 5 5 5 5 5 5 5 5 5 5 5 5 5 5 5 5 5 5 5 5 5 6 6 6 6 6 6 6 7 7
4 4 4 4 3 4 4 4 4 4 4 4 5 5 5 4 4 4 5 4 4 4 4 5 5 5 5 5 5 5 5 6 6 6 6 6 6 6
3 3 3 3 3 3 3 4 4 4 4 4 4 4 4 4 4 4 4 4 4 4 4 4 4 4 4 4 5 5 5 5 5 5 5 6 6 6
3 3 3 3 3 3 3 3 3 3 3 3 3 3 3 3 3 3 3 3 3 3 3 4 4 4 4 4 4 4 5 5 5 5 5 5 5 6
2 2 2 2 2 2 2 2 3 3 3 3 3 3 3 3 3 3 3 3 3 3 3 3 3 4 3 4 4 4 4 4 4 4 5 5 5 5
2 2 2 2 2 2 2 2 2 2 2 3 3 3 3 3 2 2 2 2 3 3 3 3 3 3 3 3 3 3 4 4 4 4 4 4 4 4
2 2 2 2 2 2 2 2 2 2 2 2 2 2 2 2 2 2 2 2 2 2 2 2 3 3 3 3 3 3 3 3 4 4 4 4 4 4
Wind_Speed
2 2 2 1 2 2 2 3 3 3 2 1 1 1 1 2 3 2 1 3 3 3 3 3 2 2 2 2 3 3 3 3 4 5 4 4 4 4
2 2 2 2 2 2 2 3 3 3 3 2 2 1 1 2 2 2 2 2 3 3 3 2 2 2 2 2 3 3 3 3 3 3 4 5 5 4
3 4 4 3 2 2 3 3 3 3 3 3 2 2 2 2 2 2 1 0 2 4 3 3 2 2 1 2 3 4 3 3 3 3 4 6 6 5
4 4 4 3 4 3 3 3 3 4 4 4 3 3 3 2 2 2 1 1 0 4 4 3 2 2 1 1 2 4 4 4 3 3 3 5 6 6
5 5 4 4 4 4 4 4 3 3 4 4 4 3 3 2 2 2 2 1 1 2 3 4 4 3 3 2 3 4 4 4 4 4 4 4 5 7
4 4 5 5 5 4 4 4 4 4 4 4 4 3 3 3 3 3 2 2 2 2 2 3 4 5 4 4 3 4 4 5 5 5 5 5 5 6
4 4 4 3 3 3 3 4 4 4 4 4 4 4 3 3 3 3 3 2 2 3 3 3 3 4 5 6 5 5 6 6 6 6 6 6 6 6
3 3 3 4 4 4 4 5 5 5 4 4 5 5 5 5 4 4 4 3 3 2 3 4 4 4 4 5 5 6 7 8 7 7 7 7 7 7
3 3 2 2 4 5 5 6 5 5 5 6 6 6 5 5 5 5 5 5 5 3 3 4 4 5 4 4 4 6 7 8 8 8 8 8 8 8
3 3 3 3 3 4 4 5 5 5 5 6 6 6 6 5 5 6 6 5 4 3 3 4 4 4 4 4 5 6 7 8 8 8 8 8 9 9
3 3 3 3 1 3 5 5 5 4 4 5 6 5 5 4 4 4 4 4 4 3 3 3 4 4 4 4 4 6 8 8 9 9 9 9 9 9
3 3 3 4 2 3 5 5 5 5 4 4 5 5 5 5 6 5 4 5 4 3 3 3 3 3 3 3 3 3 5 7 8 8 8 8 8 7
4 3 2 1 2 3 5 5 5 5 5 5 4 4 4 4 4 4 5 5 5 4 3 3 3 4 4 3 3 3 3 3 4 6 7 8 9 8
4 4 2 2 3 4 4 3 4 4 4 4 4 4 3 3 3 3 4 4 5 5 4 4 4 4 4 4 4 3 3 3 3 4 4 6 8 10
3 2 2 3 3 3 2 2 3 4 4 4 4 3 3 3 3 2 3 3 3 3 4 4 4 4 4 5 4 4 3 3 3 3 3 3 4 4
4 3 3 3 3 3 2 2 3 3 4 4 4 3 2 2 2 2 3 3 3 2 3 4 4 4 4 4 4 4 3 3 3 3 4 4 4 4
3 2 2 2 2 2 2 2 2 3 4 4 4 3 3 2 2 2 3 3 3 3 2 2 3 2 3 4 4 4 4 3 3 3 4 4 4 4
3 3 3 3 3 3 3 3 3 3 3 3 4 4 3 3 2 2 2 3 3 3 2 2 2 2 3 3 3 4 4 4 4 4 4 4 4 4
3 3 3 3 3 3 3 3 3 3 3 3 3 3 3 3 3 2 2 3 3 3 3 3 2 3 3 4 3 3 4 4 4 4 4 4 5 4
4 4 4 4 3 3 3 3 3 3 3 3 3 3 3 3 3 3 3 3 3 3 3 3 3 3 4 5 4 4 4 5 5 5 4 5 5 5
4 4 4 4 3 3 3 3 3 3 3 3 3 3 2 2 3 3 3 3 4 4 4 4 4 5 5 4 4 4 3 3 5 5 5 5 5 5
4 4 4 4 4 4 4 4 4 4 4 3 3 3 3 3 3 3 3 3 4 4 4 4 3 4 4 4 5 5 5 4 4 6 6 5 4 5
4 4 4 4 4 4 4 4 4 4 4 3 3 3 3 3 3 3 4 4 4 4 4 4 3 3 4 4 5 5 6 5 4 4 4 4 6 7
Wind_Direction
239 240 246 256 256 259 256 256 272 274 274 283 277 349 350 1 9 333 349 84 96 106 112 112 108 123 148 158 162 167 168 175 179 181 183 182 184 186
248 246 247 252 253 247 246 259 268 272 276 286 288 298 350 329 351 329 345 106 115 124 127 131 126 130 160 168 170 169 167 178 177 184 198 202 198 201
240 237 241 250 241 236 243 249 255 256 256 269 279 289 287 298 336 337 334 269 143 138 136 133 136 151 181 189 191 187 183 189 191 200 214 214 205 208
246 245 245 246 246 244 244 247 247 247 250 258 266 276 277 292 307 309 305 308 238 143 155 168 175 180 185 210 217 207 203 202 201 211 223 225 217 215
249 246 247 242 243 246 244 249 250 247 247 247 253 260 267 270 280 282 282 280 257 183 181 196 195 199 209 220 228 215 216 214 212 217 220 231 232 227
256 249 247 248 247 251 247 251 251 247 243 243 248 250 250 258 259 265 270 269 256 235 224 216 200 205 212 219 229 220 218 219 221 223 223 231 241 243
254 247 246 254 276 269 264 258 252 248 244 244 245 250 251 247 253 255 257 266 261 247 242 232 219 219 214 217 221 227 231 227 224 228 228 231 241 248
264 256 248 235 239 236 251 264 263 253 250 248 249 249 252 253 255 254 250 253 258 231 246 250 238 238 228 224 219 224 232 229 225 227 230 233 239 245
263 258 255 260 255 244 233 228 235 248 261 262 257 259 258 256 251 249 246 247 258 251 247 252 243 244 240 228 205 219 226 228 228 229 233 236 239 243
260 257 255 252 259 270 255 246 243 239 243 252 259 267 268 265 253 250 253 253 258 242 238 252 249 252 249 239 209 217 225 230 232 232 236 240 242 241
262 268 271 264 264 286 264 249 248 252 240 245 271 276 286 281 265 248 241 239 249 244 237 252 256 264 261 248 219 211 225 232 234 236 239 241 242 242
267 266 270 282 277 258 262 256 251 256 258 245 243 245 248 232 224 234 235 239 250 244 221 241 253 258 258 251 243 238 232 233 235 237 239 238 237 237
260 263 263 284 276 261 270 267 271 275 258 252 249 247 245 242 231 232 238 244 249 255 234 229 251 248 255 261 261 265 259 257 249 248 237 231 227 228
260 264 264 250 268 272 270 291 297 273 255 250 247 245 250 251 247 247 247 253 267 268 247 230 247 249 254 262 262 256 256 255 258 259 249 227 222 225
261 288 289 269 263 258 264 270 261 255 248 248 251 255 259 263 260 246 246 248 252 268 261 246 252 250 256 262 265 264 264 258 245 259 262 251 236 227
251 235 225 233 247 268 272 256 256 260 257 252 255 258 261 254 249 253 248 237 243 258 274 269 257 256 257 265 265 262 261 258 258 265 262 259 257 242
263 259 257 243 248 256 262 263 260 257 252 252 254 252 250 253 255 253 246 248 252 253 264 275 263 256 264 268 257 262 266 267 270 267 257 255 253 250
234 233 241 244 248 258 262 262 259 262 260 252 250 250 249 247 247 249 247 249 253 262 269 278 282 259 263 267 265 265 267 270 276 271 262 257 255 257
231 235 238 240 245 252 257 260 264 270 269 257 254 253 249 246 242 241 240 247 254 260 264 268 267 265 262 270 269 259 275 274 269 262 259 259 261 265
236 237 241 244 244 247 254 261 267 271 272 265 258 257 254 250 248 249 247 249 251 255 258 263 267 266 266 275 280 286 267 269 270 267 265 263 261 266
236 238 241 244 246 249 253 257 260 264 270 268 259 256 252 252 253 257 257 256 254 253 257 264 276 274 271 270 271 277 286 261 276 278 275 264 261 258
240 243 244 248 248 247 248 250 252 253 258 262 259 253 253 253 254 256 259 261 257 260 265 271 270 262 259 259 266 276 285 291 276 264 266 265 265 262
243 243 244 244 244 246 246 244 245 250 250 254 261 258 255 253 256 259 258 259 263 266 268 269 269 265 265 263 267 272 280 289 289 283 273 251 246 262
Height
1529 1530 1530 1530 1530 1530 1531 1531 1531 1530 1529 1528 1527 1526 1525 1524 1523 1522 1521 1520 1520 1520 1520 1521 1521 1522 1523 1523 1524 1525 1526 1526 1527 1528 1528 1529 1529 1530
1528 1528 1528 1529 1529 1529 1529 1529 1529 1529 1528 1527 1526 1525 1524 1524 1523 1521 1521 1520 1519 1519 1519 1520 1520 1521 1521 1522 1522 1523 1524 1525 1526 1526 1527 1527 1527 1528
1526 1527 1527 1527 1527 1527 1527 1527 1527 1526 1525 1525 1524 1524 1523 1523 1522 1521 1520 1520 1519 1519 1519 1519 1519 1519 1520 1520 1520 1521 1522 1523 1523 1524 1524 1525 1525 1526
1524 1524 1524 1524 1525 1525 1525 1525 1525 1524 1524 1523 1523 1522 1522 1521 1521 1520 1519 1519 1518 1518 1518 1518 1518 1518 1518 1518 1519 1519 1520 1521 1521 1522 1522 1523 1523 1523
1521 1522 1522 1522 1522 1522 1522 1522 1522 1522 1522 1521 1521 1520 1520 1520 1519 1518 1518 1517 1517 1517 1517 1516 1516 1516 1516 1517 1517 1518 1518 1518 1519 1519 1520 1520 1520 1521
1518 1518 1518 1519 1519 1519 1520 1520 1520 1519 1519 1519 1518 1518 1517 1517 1517 1516 1516 1516 1515 1515 1515 1515 1515 1514 1514 1515 1515 1515 1516 1516 1516 1517 1517 1517 1517 1518
1516 1515 1515 1515 1516 1516 1516 1517 1517 1517 1516 1516 1516 1515 1515 1514 1514 1514 1514 1513 1513 1513 1513 1513 1513 1513 1512 1512 1512 1512 1513 1513 1514 1514 1515 1515 1515 1515
1513 1513 1513 1512 1512 1512 1513 1513 1513 1514 1513 1513 1513 1512 1512 1512 1512 1511 1511 1511 1511 1511 1511 1511 1511 1510 1510 1510 1510 1510 1510 1510 1511 1511 1512 1512 1512 1512
1510 1510 1510 1509 1509 1510 1510 1509 1510 1510 1510 1510 1510 1509 1509 1509 1508 1508 1508 1508 1508 1508 1508 1507 1508 1508 1508 1507 1507 1507 1507 1507 1508 1508 1509 1509 1509 1509
1507 1507 1507 1506 1506 1506 1506 1506 1506 1506 1506 1506 1506 1506 1506 1505 1505 1505 1505 1505 1505 1505 1505 1505 1505 1505 1504 1504 1504 1504 1504 1504 1505 1505 1505 1505 1506 1505
1504 1504 1503 1503 1503 1502 1503 1503 1503 1503 1502 1502 1501 1501 1501 1501 1501 1501 1501 1501 1501 1501 1501 1501 1501 1501 1501 1501 1501 1501 1501 1501 1501 1501 1502 1502 1502 1502
1501 1500 1499 1499 1499 1499 1499 1500 1499 1499 1499 1498 1498 1498 1498 1497 1497 1498 1497 1498 1498 1498 1497 1498 1498 1498 1498 1497 1497 1498 1497 1497 1497 1497 1498 1498 1498 1498
1497 1497 1496 1495 1495 1495 1495 1496 1495 1495 1495 1495 1495 1495 1494 1494 1494 1494 1494 1494 1494 1494 1494 1494 1494 1495 1495 1494 1494 1494 1494 1494 1494 1494 1494 1494 1494 1494
1493 1493 1492 1492 1491 1491 1491 1491 1491 1491 1491 1491 1491 1491 1491 1491 1490 1490 1490 1490 1490 1491 1491 1491 1491 1491 1491 1491 1491 1490 1491 1490 1490 1490 1490 1490 1490 1490
1489 1489 1488 1488 1488 1488 1487 1487 1487 1488 1488 1488 1488 1488 1488 1487 1487 1487 1486 1486 1487 1487 1487 1487 1487 1487 1488 1488 1487 1487 1487 1487 1487 1487 1486 1486 1486 1486
1485 1485 1484 1484 1484 1484 1484 1484 1484 1484 1484 1484 1484 1484 1484 1484 1483 1483 1483 1483 1483 1483 1483 1483 1484 1484 1484 1484 1484 1483 1484 1483 1483 1483 1483 1482 1482 1482
1481 1481 1481 1481 1480 1480 1480 1480 1480 1480 1481 1481 1481 1481 1481 1480 1480 1480 1480 1480 1480 1480 1480 1480 1480 1480 1480 1480 1480 1479 1479 1479 1479 1479 1478 1478 1478 1478
1477 1477 1477 1477 1477 1477 1477 1477 1477 1477 1477 1477 1477 1477 1477 1477 1477 1477 1477 1477 1477 1477 1477 1476 1476 1477 1477 1476 1477 1476 1476 1475 1475 1475 1475 1474 1474 1474
1473 1473 1473 1473 1473 1473 1473 1473 1474 1473 1473 1473 1473 1473 1473 1474 1474 1473 1473 1474 1474 1474 1474 1474 1474 1474 1474 1473 1473 1473 1472 1472 1471 1471 1471 1470 1470 1470
1469 1469 1469 1470 1470 1470 1470 1470 1470 1470 1470 1469 1470 1470 1470 1470 1470 1470 1470 1470 1471 1471 1471 1471 1471 1471 1471 1471 1470 1469 1469 1468 1468 1467 1467 1466 1466 1466
1466 1466 1466 1466 1466 1467 1467 1467 1467 1466 1466 1466 1466 1466 1467 1467 1467 1467 1467 1467 1467 1468 1467 1468 1468 1468 1468 1468 1467 1466 1465 1465 1464 1464 1463 1462 1462 1461
1462 1462 1462 1462 1463 1463 1463 1463 1463 1463 1463 1463 1463 1463 1463 1463 1464 1464 1464 1464 1464 1464 1464 1465 1464 1465 1464 1464 1463 1462 1462 1461 1460 1460 1459 1458 1457 1457
1457 1457 1458 1458 1458 1459 1459 1459 1459 1459 1459 1460 1460 1460 1460 1460 1461 1461 1461 1461 1461 1461 1461 1461 1461 1461 1461 1460 1460 1459 1458 1457 1457 1456 1455 1455 1454 1454